Probability
0 0 0 0 0 0 0 0 0 0 0 0 0 0 0 0 0 0 0 0 0 0 0 0 0 0 0 0 0 0 0 0 0 0 0 0 0 0 0 0 0 0 0 0 0 0 0 0 0
0 0 0 0 0 0 0 0 0 0 0 0 0 0 0 0 0 0 0 0 0 0 0 0 0 0 0 0 0 0 0 0 0 0 0 0 0 0 0 0 0 0 0 0 0 0 0 0 0
0 0 0 0 0 0 0 0 0 0 0 0 0 0 0 0 0 0 0 0 0 0 0 0 0 0 0 0 0 0 0 0 0 0 0 0 0 0 0 0 0 0 0 0 0 0 0 0 0
0 0 0 0 0 0 0 0 0 0 0 0 0 0 0 0 0 0 0 0 0 0 0 1 1 1 0 0 0 0 0 0 0 0 0 0 0 0 0 0 0 0 0 0 0 0 0 0 0
0 0 0 0 0 0 0 0 0 0 0 0 0 0 0 0 0 0 0 0 0 1 3 5 6 3 0 0 0 0 0 0 0 0 0 0 0 1 1 1 1 1 1 1 0 0 0 0 0
0 0 0 0 0 0 0 0 0 0 0 0 0 0 0 0 0 0 0 0 1 3 6 10 10 6 3 2 1 0 0 0 0 0 0 2 3 3 1 1 0 0 0 1 1 1 1 0 0
0 0 0 0 0 0 0 0 0 0 0 0 0 0 0 0 0 0 0 0 0 2 5 7 7 6 6 5 3 1 1 1 0 0 1 4 6 4 2 0 0 0 0 1 2 2 1 1 0
0 0 0 0 0 0 0 0 0 0 0 0 0 0 0 0 0 0 0 0 0 0 1 2 2 3 5 6 3 1 1 1 1 0 2 4 5 3 1 0 0 0 0 0 1 1 1 1 1
0 0 0 0 0 0 0 0 0 0 0 0 0 0 0 0 0 0 0 0 0 0 0 0 0 0 2 3 2 2 1 1 1 1 1 1 1 1 1 0 0 1 3 3 1 1 0 0 0
0 0 0 0 0 0 0 0 0 0 0 0 0 0 0 0 0 0 0 0 0 0 0 0 0 0 0 1 1 1 1 0 0 0 0 0 0 0 0 0 0 2 6 8 8 8 5 1 0
0 0 0 0 0 0 0 0 0 0 0 0 0 0 0 0 0 0 0 0 0 0 0 0 0 0 0 0 0 0 0 0 0 0 0 0 0 0 0 0 0 2 5 9 13 14 9 3 0
0 0 0 0 0 0 0 0 0 0 0 0 0 0 0 0 0 0 0 0 0 0 0 0 0 0 0 0 0 0 0 0 0 0 0 0 0 0 0 0 0 1 2 5 8 8 6 3 1
0 0 0 0 0 0 0 0 0 0 0 0 0 0 0 0 0 0 0 0 0 0 0 0 0 0 0 0 0 0 0 0 0 0 0 0 0 0 0 0 0 0 1 1 1 1 1 1 0
0 0 0 0 0 0 0 0 0 0 0 0 0 0 0 0 0 0 0 0 0 0 0 0 0 0 0 0 0 0 0 0 0 0 0 0 0 0 0 0 0 0 0 0 0 0 0 0 0
0 0 0 0 0 0 0 0 0 0 0 0 0 0 0 0 0 0 0 0 0 0 0 0 0 0 0 0 0 0 0 0 0 0 0 0 0 0 0 0 0 0 0 0 0 0 0 0 0
0 0 0 0 0 0 0 0 0 0 0 0 0 0 0 0 0 0 0 0 0 0 0 0 0 0 0 0 0 0 0 0 0 0 0 0 0 0 0 0 0 0 0 0 0 0 0 0 0
0 0 0 0 0 0 0 0 0 0 0 0 0 0 0 0 0 0 0 0 0 0 0 0 0 0 0 0 0 0 0 0 0 0 0 0 0 0 0 0 0 0 0 0 0 0 0 0 0
0 0 0 0 0 0 0 0 0 0 0 0 0 0 0 0 0 0 0 0 0 0 0 0 0 0 0 0 0 0 0 0 0 0 0 0 0 0 0 0 0 0 0 0 0 0 0 0 0
0 0 0 0 0 0 0 0 0 0 0 0 0 0 0 0 0 0 0 0 0 0 0 0 0 0 0 0 0 0 0 0 0 0 0 0 0 0 0 0 0 0 0 0 0 0 0 0 0
0 0 0 0 0 0 0 0 0 0 0 0 0 0 0 0 0 0 0 0 0 0 0 0 0 0 0 0 0 0 0 0 0 0 0 0 0 0 0 0 0 0 0 0 0 0 0 0 0
0 0 0 0 0 0 0 0 0 0 0 0 0 0 0 0 0 0 0 0 0 0 0 0 0 0 0 0 0 0 0 0 0 0 0 0 0 0 0 0 0 0 0 0 0 0 0 0 0
0 0 0 0 0 0 0 0 0 0 0 0 0 0 0 0 0 0 0 0 0 0 0 0 0 0 0 0 0 0 0 0 0 0 0 0 0 0 0 0 0 0 0 0 0 0 0 0 0
0 0 0 0 0 0 0 0 0 0 0 0 0 0 0 0 0 0 0 0 0 0 0 0 0 0 0 0 0 0 0 0 0 0 0 0 0 0 0 0 0 0 0 0 0 0 0 0 0
0 0 0 0 0 0 0 0 0 0 0 0 0 0 0 0 0 0 0 0 0 0 0 0 0 0 0 0 0 0 0 0 0 0 0 0 0 0 0 0 0 0 0 0 0 0 0 0 0
0 0 0 0 0 0 0 0 0 0 0 0 0 0 0 0 0 0 0 0 0 0 0 0 0 0 0 0 0 0 0 0 0 0 0 0 0 0 0 0 0 0 0 0 0 0 0 0 0
0 0 0 0 0 0 0 0 0 0 0 0 0 0 0 0 0 0 0 0 0 0 0 0 0 0 0 0 0 0 0 0 0 0 0 0 0 0 0 0 0 0 0 0 0 0 0 0 0
0 0 0 0 0 0 0 0 0 0 0 0 0 0 0 0 0 0 0 0 0 0 0 0 0 0 0 0 0 0 0 0 0 0 0 0 0 0 0 0 0 0 0 0 0 0 0 0 0
0 0 0 0 0 0 0 0 0 0 0 0 0 0 0 0 0 0 0 0 0 0 0 0 0 0 0 0 0 0 0 0 0 0 0 0 0 0 0 0 0 0 0 0 0 0 0 0 0
0 0 0 0 0 0 0 0 0 0 0 0 0 0 0 0 0 0 0 0 0 0 0 0 0 0 0 0 0 0 0 0 0 0 0 0 0 0 0 0 0 0 0 0 0 0 0 0 0
0 0 0 0 0 0 0 0 0 0 0 0 0 0 0 0 0 0 0 0 0 0 0 0 0 0 0 0 0 0 0 0 0 0 0 0 0 0 0 0 0 0 0 0 0 0 0 0 0
Wind_Speed
8 6 3 4 6 5 3 5 4 1 2 2 2 8 8 5 4 3 3 3 7 8 9 11 14 13 12 10 9 8 7 6 5 4 4 4 5 5 6 6 7 7 7 6 5 4 4 4 3
4 4 5 5 6 4 4 4 3 3 1 2 5 7 6 3 1 5 3 6 9 9 9 10 15 14 12 11 9 9 8 7 7 6 5 4 4 5 5 6 7 8 7 7 6 4 4 4 4
5 3 5 5 3 2 1 2 2 4 4 4 5 5 5 2 1 3 4 7 8 7 8 10 15 14 12 11 10 9 9 8 8 7 6 6 5 3 3 4 6 7 7 6 5 4 4 4 4
4 5 5 5 3 3 3 2 4 7 10 8 4 5 4 3 1 3 2 6 8 7 6 8 13 12 11 10 9 9 9 9 8 7 6 6 6 4 2 2 3 4 6 6 5 5 5 4 5
5 5 6 4 4 5 4 4 8 9 7 8 5 4 3 6 3 1 2 4 6 5 4 5 10 11 11 10 9 9 9 9 8 8 7 6 7 7 5 3 2 3 5 6 6 6 6 5 5
5 5 5 4 6 5 5 5 6 7 7 7 5 3 2 5 4 4 5 4 5 6 4 4 8 9 10 10 10 9 9 9 8 8 8 7 7 8 7 5 5 5 6 6 6 6 6 6 6
4 4 2 3 3 6 9 7 8 6 8 8 5 4 4 7 6 4 4 6 6 5 4 1 1 3 6 8 8 9 8 8 8 9 8 6 4 5 6 6 7 8 8 7 6 6 5 6 7
5 5 4 3 3 4 8 6 5 7 6 8 8 7 5 9 8 6 5 7 7 6 5 3 2 2 2 3 6 7 7 8 8 7 7 6 5 6 7 6 7 9 9 9 8 7 6 6 6
4 6 3 3 2 2 4 7 9 5 7 9 10 9 7 11 13 15 12 10 8 9 6 5 5 3 2 3 5 6 7 8 8 7 8 7 4 5 5 7 9 11 11 11 11 10 9 7 6
5 3 1 1 1 2 2 5 6 9 12 9 9 15 16 20 21 20 18 15 13 11 10 8 7 6 5 4 2 2 3 4 5 4 5 4 4 5 6 8 12 13 12 12 13 12 10 7 4
4 4 3 1 2 3 3 6 8 7 11 8 8 11 17 24 23 22 19 15 14 12 14 13 10 9 8 5 4 2 3 3 4 5 5 4 4 3 4 3 5 7 9 6 7 7 5 4 4
2 2 1 2 1 2 4 5 10 13 8 7 9 13 20 23 20 18 17 17 16 16 17 15 14 13 11 8 6 4 3 3 3 4 4 3 3 3 3 3 3 3 3 4 4 4 5 6 6
0 1 1 0 4 7 11 11 13 10 8 9 16 22 21 19 15 13 14 16 17 18 18 16 16 17 14 11 9 8 6 5 5 4 4 2 2 3 3 3 3 4 4 4 5 5 6 6 7
2 3 4 2 6 6 12 8 9 7 7 14 19 19 16 16 15 16 18 18 17 15 16 15 16 17 16 13 12 9 9 8 6 5 6 5 2 2 3 3 3 4 4 4 4 5 5 5 5
3 4 6 3 6 5 11 11 8 6 9 16 14 13 14 13 14 14 11 11 11 10 12 15 14 16 16 14 13 11 10 10 9 8 8 7 5 3 3 3 4 4 4 5 4 5 4 4 4
4 5 5 5 3 4 10 7 6 4 12 14 10 9 11 10 10 8 8 9 9 9 11 12 14 14 13 12 11 10 10 10 10 9 9 10 8 5 3 3 4 5 4 4 4 4 3 4 4
8 4 3 5 7 5 8 8 5 5 13 12 8 8 8 9 10 9 8 8 8 9 9 10 11 11 10 9 9 9 9 10 10 10 10 12 12 8 5 4 4 4 4 4 4 4 4 4 4
3 3 3 3 6 6 9 8 6 6 11 9 7 8 8 10 9 8 8 8 8 8 8 8 9 9 8 6 6 7 9 10 10 10 11 15 13 12 8 5 5 4 4 4 4 4 4 3 3
1 2 3 2 4 6 9 9 6 5 8 8 8 8 9 9 9 9 9 10 10 11 11 12 12 11 9 6 6 6 7 8 9 10 14 15 15 14 11 7 6 4 4 5 5 4 4 3 2
4 3 3 4 5 7 10 8 5 5 6 6 6 8 8 9 11 12 12 12 13 14 15 15 15 14 11 7 5 4 4 4 6 7 11 14 16 16 13 10 7 6 4 5 5 4 3 2 3
4 1 1 4 5 5 9 4 4 4 6 8 8 8 8 11 11 12 12 12 12 13 14 14 14 14 12 10 6 6 4 5 6 9 10 14 17 17 15 13 10 7 6 5 6 5 6 4 2
4 4 4 4 1 2 5 4 3 2 6 8 9 9 10 10 10 10 11 11 12 11 11 12 13 13 12 10 8 8 8 7 7 7 9 14 16 16 16 14 11 8 5 6 6 5 4 5 3
6 8 6 3 4 1 0 5 1 2 5 7 8 8 9 10 10 11 11 11 11 11 11 11 11 11 11 10 9 8 7 7 7 9 11 13 14 15 16 14 11 8 5 5 6 5 5 4 5
6 7 5 5 4 1 1 5 1 3 4 5 7 8 9 10 10 9 10 10 10 11 11 11 12 11 10 10 9 9 9 11 13 13 12 12 12 13 16 16 11 7 4 4 5 5 6 4 4
9 8 7 9 6 4 4 7 4 4 5 6 7 8 8 9 9 9 11 12 13 14 14 14 14 14 12 12 11 11 10 11 12 13 13 14 13 13 15 16 12 8 4 3 3 3 5 5 5
4 5 4 2 5 6 4 5 5 4 4 4 5 6 8 9 8 10 12 12 14 16 16 15 15 15 15 14 14 11 12 11 10 13 14 14 12 13 16 17 14 9 4 2 1 1 2 3 4
3 2 2 4 3 5 2 3 4 3 4 6 7 8 9 9 8 9 11 12 13 15 15 16 17 17 17 16 16 14 14 14 14 16 14 12 13 14 16 16 13 8 4 1 1 1 0 2 3
2 2 4 2 3 6 4 2 3 7 8 9 10 10 9 9 8 10 10 13 14 15 15 16 17 18 18 17 16 14 15 15 16 15 17 17 17 17 17 15 12 8 4 2 2 2 1 3 3
5 4 4 1 2 3 5 1 4 4 6 8 9 9 9 10 11 12 12 14 15 16 17 17 18 18 18 18 17 16 15 15 16 15 17 17 17 17 16 15 11 7 4 2 2 3 2 3 3
2 3 3 1 4 2 3 2 5 3 5 6 8 8 7 8 9 11 12 14 15 17 17 18 18 18 18 18 17 17 16 16 16 17 18 18 18 17 16 13 11 7 4 1 1 3 3 4 4
Wind_Direction
342 354 62 55 51 44 342 292 267 253 38 336 47 88 107 110 129 162 228 175 151 148 168 171 171 173 174 175 175 174 177 181 184 189 193 199 206 208 206 206 207 209 208 210 214 214 209 200 188
352 2 48 56 73 45 342 299 348 33 148 36 53 84 86 72 123 142 157 165 155 155 167 171 173 174 175 177 181 184 188 194 198 204 216 226 228 216 209 219 221 218 214 216 222 225 225 216 207
356 40 68 64 77 137 298 277 347 343 345 43 53 67 84 83 115 183 211 161 148 156 171 177 174 174 176 181 187 192 197 204 210 214 226 235 224 230 227 241 241 225 209 206 210 215 221 219 213
44 34 51 60 360 277 271 318 42 28 2 3 45 53 52 349 230 216 220 154 151 169 177 177 174 175 178 184 192 199 204 212 217 222 236 242 218 217 225 249 238 213 193 192 198 206 213 217 219
61 65 50 26 330 306 315 346 62 54 19 359 34 62 29 335 5 85 91 149 154 154 165 172 178 180 182 188 197 204 209 220 225 230 240 248 236 217 207 209 214 201 191 195 202 208 211 214 220
50 59 63 6 337 331 350 358 50 45 12 11 41 74 15 338 10 24 48 76 124 129 140 164 189 191 191 194 201 208 212 222 229 236 242 248 252 222 209 217 224 218 212 209 211 214 218 219 222
85 75 62 347 342 13 350 349 37 36 23 346 354 68 9 352 340 357 61 78 90 102 104 94 249 228 218 215 214 215 219 226 233 238 244 241 255 239 230 230 234 228 221 216 215 219 226 231 232
110 88 36 17 43 6 325 0 13 32 23 3 31 50 2 333 339 2 35 52 58 59 60 36 339 297 281 268 251 232 227 231 237 242 246 232 232 246 250 241 240 236 226 216 213 219 227 236 242
77 68 27 1 45 350 338 16 356 37 54 41 39 34 3 4 23 27 23 24 35 40 37 34 33 24 309 263 244 240 235 236 237 238 237 230 229 239 249 247 244 241 234 222 218 221 226 230 238
80 97 271 326 127 135 29 31 4 41 36 24 24 22 27 37 37 34 27 23 23 19 15 17 22 20 15 9 2 286 270 259 248 240 235 229 222 226 236 250 245 238 230 224 222 224 227 231 236
139 180 230 274 172 129 62 34 20 72 45 29 46 35 39 44 41 37 31 24 19 13 14 9 9 11 16 13 8 341 315 293 271 257 246 242 238 234 238 249 258 235 225 223 232 236 229 229 232
202 254 304 330 0 52 67 73 53 60 89 80 72 61 54 49 43 36 31 26 21 21 16 11 12 11 8 8 3 358 347 333 315 290 268 247 244 242 233 229 235 225 220 223 230 231 233 232 234
145 291 323 288 60 76 82 87 91 79 95 82 69 60 56 54 47 41 37 32 26 22 15 12 16 14 9 8 2 2 353 347 335 327 313 270 235 238 234 229 223 225 225 225 228 230 233 235 237
300 296 309 324 84 81 87 81 88 83 86 73 65 61 57 53 47 42 35 29 24 19 14 10 18 14 13 11 3 357 351 345 343 339 327 319 292 263 255 257 247 234 224 222 225 227 229 232 232
321 342 358 31 116 130 92 54 63 97 85 70 61 60 58 51 46 43 36 30 21 15 14 13 15 13 13 10 4 359 353 349 345 338 327 320 306 285 264 255 256 250 238 231 233 240 234 238 238
26 34 21 355 66 103 92 91 58 68 83 72 59 53 53 46 42 37 32 26 19 16 14 12 12 11 10 7 2 359 354 351 345 337 330 323 311 290 269 255 254 252 245 234 231 233 237 241 243
28 23 1 350 14 50 86 105 64 52 81 74 56 49 47 40 32 23 19 13 8 6 3 2 1 2 1 359 358 356 355 353 345 340 335 328 319 303 278 259 256 255 244 236 232 222 216 232 244
346 341 326 333 9 47 84 98 76 55 75 68 53 44 39 33 17 5 6 1 355 352 351 349 349 349 347 349 353 355 356 353 346 342 337 333 325 316 299 273 261 257 243 239 226 219 215 215 228
316 315 317 317 33 60 97 97 76 60 64 60 48 39 33 21 1 358 358 357 355 354 352 348 347 343 343 344 348 349 351 347 342 338 335 331 327 321 312 292 270 250 233 229 216 199 205 211 195
33 44 5 332 15 78 94 84 69 58 67 66 54 39 28 16 6 3 1 359 358 356 354 351 346 339 335 328 321 319 320 321 323 324 329 330 329 322 313 299 276 249 229 224 213 190 180 198 177
4 124 271 287 349 81 111 82 76 39 48 42 33 29 20 19 6 1 360 357 356 357 354 350 342 338 332 329 326 327 327 326 339 339 335 331 327 322 314 304 285 254 221 212 209 192 175 185 197
303 254 264 265 307 226 170 162 162 85 48 34 23 20 14 6 0 357 357 356 358 353 348 344 339 337 338 340 343 345 347 337 328 327 323 323 322 319 316 312 297 267 231 210 209 198 183 165 177
279 288 287 243 179 221 71 124 194 78 52 26 16 13 9 1 356 354 356 355 352 347 343 338 336 338 341 345 346 345 340 328 324 326 324 323 320 317 315 310 306 285 256 223 202 188 185 173 166
316 350 22 54 79 88 4 128 44 22 57 31 14 7 1 352 348 350 353 352 347 344 342 341 342 341 344 347 347 343 338 335 334 334 329 326 319 315 315 313 302 288 272 255 218 186 179 178 165
18 32 18 5 5 283 57 89 105 78 71 49 18 360 350 343 345 354 355 351 347 346 346 346 346 347 350 352 351 344 344 338 334 333 329 324 318 315 314 314 304 290 261 255 247 190 171 169 163
4 79 97 288 275 293 21 108 139 120 80 45 13 354 345 346 352 359 353 349 347 347 346 347 349 351 353 355 351 347 349 343 337 333 327 320 314 309 308 307 300 291 275 238 232 212 174 155 156
19 46 157 174 282 279 281 125 161 64 33 16 2 355 348 345 348 353 350 350 349 347 347 349 352 353 354 354 350 349 347 342 337 333 327 321 315 309 307 306 297 284 270 232 162 108 134 133 130
40 89 54 53 303 292 294 89 345 360 358 355 350 343 336 338 343 351 353 354 352 350 351 354 356 354 353 352 351 346 342 340 336 332 329 324 319 314 311 309 299 283 258 191 127 91 55 82 87
2 44 56 40 215 252 290 348 48 27 356 342 333 332 336 343 348 353 355 356 353 353 355 354 354 352 351 350 348 345 342 338 336 335 332 328 323 319 317 315 306 292 274 231 141 121 108 94 83
60 80 89 12 293 261 255 229 68 19 335 328 327 332 341 348 349 353 356 356 355 354 354 353 352 351 349 347 346 344 341 338 339 340 339 337 334 330 327 322 317 309 308 311 152 145 127 112 98